Oscoda, MI

4:55 PM EST on December 09, 2019 (GMT -0500)
Oscoda-Wurtsmith

Weather History for KOSC - October, 2019

Change the Weather History Date:

Friday, October 4, 2019

  Actual Average Record
Temperature  
Mean Temperature 44 °F -  
Max Temperature 52 °F 60 °F 84 °F (2005)
Min Temperature 36 °F 41 °F 32 °F (2008)
Degree Days  
Heating Degree Days 21    
Moisture  
Dew Point 43 °F    
Average Humidity 86    
Maximum Humidity 100    
Minimum Humidity 61    
Precipitation  
Precipitation 0.00 in - - ()
Sea Level Pressure  
Sea Level Pressure 30.35 in    
Wind  
Wind Speed 8 mph (North)    
Max Wind Speed 17 mph    
Max Gust Speed 23 mph    
Visibility 10 miles    
Events Rain    
Averages and records for this station are not official NWS values.
T = Trace of Precipitation, MM = Missing Value Source: NWS Daily Summary

Daily Weather History Graph

Daily Weather History Graph

Search for Another Location

Airport or City:

Astronomy

Oct. 04, 2019 Rise Set
Actual Time 7:34 AM EDT 7:09 PM EDT
Civil Twilight 7:05 AM EDT 7:38 PM EDT
Nautical Twilight 6:31 AM EDT 8:11 PM EDT
Astronomical Twilight 5:57 AM EDT 8:45 PM EDT
Moon 2:18 PM EDT (10/4) 11:24 PM EDT (10/4)
Length of Visible Light 12h 32m
Length of Day
11h 34m
Waxing Crescent, 39% of the Moon is Illuminated
Oct 4
Waxing Crescent
Oct 5
First Quarter
Oct 13
Full
Oct 21
Last Quarter
Oct 27
New

Hourly Weather History & Observations

Time (EDT) Temp. Windchill Dew Point Humidity Pressure Visibility Wind Dir Wind Speed Gust Speed Precip Events Conditions
12:19 AM 52.9 °F - 51.3 °F 94% 30.11 in 10.0 mi NNW 5.8 mph - N/A   Overcast
12:37 AM 52.9 °F - 51.1 °F 94% 30.12 in 10.0 mi North 9.2 mph - N/A   Overcast
12:55 AM 52.0 °F - 49.8 °F 92% 30.13 in 10.0 mi North 15.0 mph 20.7 mph N/A   Overcast
12:56 AM 52.0 °F - 49.6 °F 92% 30.13 in 10.0 mi North 12.7 mph 20.7 mph N/A   Overcast
1:15 AM 51.3 °F - 48.4 °F 90% 30.14 in 10.0 mi North 17.3 mph 23.0 mph N/A Rain Light Rain
1:16 AM 51.1 °F - 48.4 °F 90% 30.14 in 10.0 mi North 16.1 mph 23.0 mph N/A Rain Light Rain
1:35 AM 50.4 °F - 47.5 °F 90% 30.15 in 10.0 mi North 11.5 mph 20.7 mph N/A   Overcast
1:40 AM 50.2 °F - 47.3 °F 90% 30.15 in 10.0 mi NNW 11.5 mph 16.1 mph N/A   Overcast
1:58 AM 49.1 °F - 46.4 °F 90% 30.16 in 10.0 mi North 12.7 mph - N/A   Mostly Cloudy
2:16 AM 48.6 °F - 46.0 °F 91% 30.18 in 10.0 mi NNW 11.5 mph - N/A   Scattered Clouds
2:35 AM 48.2 °F - 45.9 °F 92% 30.19 in 10.0 mi NNW 8.1 mph - N/A   Scattered Clouds
2:36 AM 48.2 °F - 45.7 °F 91% 30.19 in 10.0 mi NNW 10.4 mph - N/A   Scattered Clouds
2:55 AM 47.7 °F - 45.5 °F 92% 30.20 in 10.0 mi NW 8.1 mph - N/A   Mostly Cloudy
3:19 AM 48.2 °F - 45.3 °F 90% 30.20 in 10.0 mi NNW 8.1 mph - N/A   Overcast
3:37 AM 48.0 °F - 45.0 °F 89% 30.21 in 10.0 mi NNW 8.1 mph - N/A   Overcast
3:55 AM 47.8 °F - 45.5 °F 92% 30.22 in 10.0 mi NW 6.9 mph - N/A   Overcast
3:56 AM 47.8 °F - 45.5 °F 92% 30.22 in 10.0 mi NW 6.9 mph - N/A   Overcast
4:15 AM 48.2 °F - 46.0 °F 92% 30.23 in 10.0 mi NW 8.1 mph - N/A   Overcast
4:16 AM 48.2 °F - 46.0 °F 92% 30.23 in 10.0 mi NW 8.1 mph - N/A   Overcast
4:35 AM 47.1 °F - 45.5 °F 94% 30.23 in 10.0 mi NW 6.9 mph - N/A   Mostly Cloudy
4:40 AM 46.8 °F - 45.7 °F 96% 30.24 in 10.0 mi NW 6.9 mph - N/A   Mostly Cloudy
4:58 AM 46.8 °F - 46.4 °F 99% 30.25 in 10.0 mi NW 8.1 mph - N/A   Mostly Cloudy
5:16 AM 46.2 °F 44.1 °F 45.9 °F 99% 30.26 in 10.0 mi NW 4.6 mph - N/A   Mostly Cloudy
5:35 AM 45.5 °F 42.5 °F 45.5 °F 100% 30.26 in 10.0 mi NW 5.8 mph - N/A   Scattered Clouds
5:55 AM 45.5 °F 41.3 °F 45.5 °F 100% 30.27 in 10.0 mi NNW 8.1 mph - N/A   Scattered Clouds
5:56 AM 45.5 °F 41.3 °F 45.5 °F 100% 30.27 in 10.0 mi NNW 8.1 mph - N/A   Scattered Clouds
6:19 AM 45.5 °F 41.3 °F 45.5 °F 100% 30.28 in 10.0 mi NNW 8.1 mph - N/A   Scattered Clouds
6:37 AM 45.5 °F 41.8 °F 44.8 °F 97% 30.29 in 10.0 mi NNW 6.9 mph - N/A   Scattered Clouds
6:55 AM 46.2 °F 42.2 °F 45.9 °F 99% 30.30 in 7.0 mi NNW 8.1 mph - N/A Rain Light Rain
7:15 AM 46.4 °F 41.9 °F 46.4 °F 100% 30.31 in 7.0 mi NNW 9.2 mph - N/A   Drizzle
7:16 AM 46.4 °F 41.9 °F 46.4 °F 100% 30.31 in 7.0 mi NNW 9.2 mph - N/A   Drizzle
7:35 AM 46.4 °F 42.9 °F 46.4 °F 100% 30.31 in 10.0 mi NNW 6.9 mph - N/A   Light Drizzle
7:40 AM 46.4 °F 42.4 °F 46.4 °F 100% 30.32 in 10.0 mi NNW 8.1 mph - N/A   Overcast
7:58 AM 46.6 °F - 45.9 °F 97% 30.33 in 10.0 mi NNW 9.2 mph - N/A   Overcast
8:16 AM 46.8 °F - 45.5 °F 95% 30.34 in 10.0 mi NNW 9.2 mph - N/A   Overcast
8:35 AM 47.3 °F - 45.0 °F 92% 30.35 in 10.0 mi North 6.9 mph - N/A   Overcast
8:36 AM 47.3 °F - 45.0 °F 92% 30.35 in 10.0 mi North 6.9 mph - N/A   Overcast
8:55 AM 47.3 °F - 45.0 °F 92% 30.37 in 10.0 mi North 9.2 mph - N/A   Overcast
8:56 AM 47.3 °F - 45.0 °F 92% 30.37 in 10.0 mi North 8.1 mph - N/A   Overcast
9:19 AM 47.5 °F - 44.2 °F 89% 30.38 in 10.0 mi North 10.4 mph - N/A   Overcast
9:37 AM 47.7 °F - 43.5 °F 86% 30.38 in 10.0 mi North 9.2 mph - N/A   Overcast
9:55 AM 47.8 °F - 43.2 °F 84% 30.39 in 10.0 mi North 8.1 mph - N/A   Overcast
9:56 AM 47.8 °F - 43.2 °F 84% 30.39 in 10.0 mi North 8.1 mph - N/A   Overcast
10:15 AM 47.7 °F - 42.8 °F 83% 30.40 in 10.0 mi NNW 10.4 mph - N/A   Overcast
10:16 AM 47.7 °F - 42.8 °F 83% 30.40 in 10.0 mi NNW 9.2 mph - N/A   Overcast
10:35 AM 48.2 °F - 43.0 °F 82% 30.41 in 10.0 mi North 9.2 mph - N/A   Overcast
10:58 AM 48.9 °F - 42.8 °F 79% 30.42 in 10.0 mi North 9.2 mph - N/A   Overcast
11:16 AM 48.2 °F - 41.9 °F 79% 30.43 in 10.0 mi NNW 8.1 mph - N/A   Overcast
11:35 AM 48.2 °F - 41.4 °F 77% 30.43 in 10.0 mi North 6.9 mph - N/A   Overcast
11:36 AM 48.2 °F - 41.5 °F 78% 30.43 in 10.0 mi North 8.1 mph - N/A   Overcast
11:55 AM 48.2 °F - 41.2 °F 77% 30.44 in 10.0 mi NNW 6.9 mph - N/A   Overcast
11:56 AM 48.2 °F - 41.2 °F 77% 30.44 in 10.0 mi NNW 6.9 mph - N/A   Overcast
12:19 PM 49.3 °F - 42.1 °F 76% 30.44 in 10.0 mi North 5.8 mph - N/A   Overcast
12:37 PM 49.3 °F - 41.5 °F 75% 30.44 in 10.0 mi North 5.8 mph - N/A   Overcast
12:55 PM 49.1 °F - 41.7 °F 76% 30.45 in 10.0 mi NNW 6.9 mph - N/A   Overcast
1:15 PM 49.1 °F - 41.7 °F 76% 30.45 in 10.0 mi NNW 6.9 mph - N/A   Overcast
1:16 PM 49.1 °F - 41.7 °F 76% 30.45 in 10.0 mi NNW 6.9 mph - N/A   Overcast
1:35 PM 49.3 °F - 42.1 °F 76% 30.44 in 10.0 mi NNW 6.9 mph - N/A   Overcast
1:40 PM 49.8 °F - 42.6 °F 76% 30.44 in 10.0 mi North 9.2 mph - N/A   Overcast
1:58 PM 50.2 °F - 42.8 °F 76% 30.43 in 10.0 mi North 9.2 mph - N/A   Overcast
2:16 PM 50.7 °F - 42.3 °F 73% 30.43 in 10.0 mi North 6.9 mph - N/A   Overcast
2:35 PM 51.8 °F - 40.3 °F 65% 30.43 in 10.0 mi NNE 6.9 mph - N/A   Overcast
2:36 PM 51.8 °F - 40.1 °F 64% 30.43 in 10.0 mi NNE 8.1 mph - N/A   Overcast
2:55 PM 51.8 °F - 40.1 °F 64% 30.43 in 10.0 mi North 6.9 mph - N/A   Overcast
3:19 PM 51.4 °F - 40.6 °F 67% 30.43 in 10.0 mi NNE 10.4 mph - N/A   Overcast
3:37 PM 51.3 °F - 42.1 °F 71% 30.43 in 10.0 mi NNE 10.4 mph - N/A   Overcast
3:55 PM 50.5 °F - 41.4 °F 71% 30.43 in 10.0 mi North 8.1 mph - N/A   Overcast
4:15 PM 50.9 °F - 41.2 °F 69% 30.43 in 10.0 mi NNE 5.8 mph - N/A   Overcast
4:16 PM 50.9 °F - 41.2 °F 69% 30.43 in 10.0 mi NNE 6.9 mph - N/A   Overcast
4:35 PM 50.5 °F - 39.9 °F 67% 30.43 in 10.0 mi North 5.8 mph - N/A   Overcast
4:58 PM 51.1 °F - 39.2 °F 64% 30.43 in 10.0 mi NE 6.9 mph - N/A   Overcast
5:16 PM 51.4 °F - 38.5 °F 61% 30.43 in 10.0 mi NE 6.9 mph - N/A   Mostly Cloudy
5:35 PM 50.0 °F - 38.3 °F 64% 30.43 in 10.0 mi NNE 3.5 mph - N/A   Mostly Cloudy
5:55 PM 49.1 °F - 39.0 °F 68% 30.43 in 10.0 mi ENE 6.9 mph - N/A   Mostly Cloudy
6:19 PM 49.5 °F - 39.0 °F 67% 30.43 in 10.0 mi NE 6.9 mph - N/A   Scattered Clouds
6:37 PM 48.0 °F - 39.0 °F 71% 30.43 in 10.0 mi NE 5.8 mph - N/A   Scattered Clouds
6:55 PM 47.1 °F - 39.2 °F 74% 30.43 in 10.0 mi NE 4.6 mph - N/A   Scattered Clouds
6:56 PM 46.9 °F - 39.2 °F 74% 30.43 in 10.0 mi NE 4.6 mph - N/A   Scattered Clouds
7:15 PM 45.7 °F 44.4 °F 39.2 °F 78% 30.43 in 10.0 mi NE 3.5 mph - N/A   Clear
7:35 PM 45.5 °F 44.2 °F 39.2 °F 79% 30.43 in 10.0 mi NE 3.5 mph - N/A   Clear
7:58 PM 43.2 °F - 38.8 °F 85% 30.43 in 10.0 mi Calm Calm - N/A   Clear
8:16 PM 41.9 °F - 38.5 °F 88% 30.43 in 10.0 mi Calm Calm - N/A   Clear
8:35 PM 40.6 °F - 38.1 °F 91% 30.43 in 10.0 mi Calm Calm - N/A   Clear
8:55 PM 38.8 °F - 36.9 °F 93% 30.44 in 10.0 mi Calm Calm - N/A   Clear
8:56 PM 39.0 °F - 37.2 °F 93% 30.44 in 10.0 mi Calm Calm - N/A   Clear
9:19 PM 37.8 °F - 36.1 °F 94% 30.44 in 10.0 mi Calm Calm - N/A   Clear
9:37 PM 38.1 °F - 36.5 °F 94% 30.43 in 10.0 mi Calm Calm - N/A   Clear
9:55 PM 37.4 °F - 36.7 °F 97% 30.44 in 10.0 mi Calm Calm - N/A   Scattered Clouds
10:15 PM 37.9 °F 35.5 °F 37.6 °F 99% 30.44 in 10.0 mi NW 3.5 mph - N/A   Scattered Clouds
10:35 PM 36.5 °F 33.9 °F 36.5 °F 100% 30.44 in 10.0 mi NNW 3.5 mph - N/A   Scattered Clouds
10:39 PM 36.9 °F - 36.9 °F 100% 30.44 in 10.0 mi Calm Calm - N/A   Scattered Clouds
10:58 PM 36.3 °F 33.7 °F 36.3 °F 100% 30.44 in 10.0 mi West 3.5 mph - N/A   Scattered Clouds
11:16 PM 36.9 °F - 36.9 °F 100% 30.44 in 10.0 mi Calm Calm - N/A   Clear
11:35 PM 36.7 °F - 36.7 °F 100% 30.44 in 10.0 mi Calm Calm - N/A   Clear
11:55 PM 36.9 °F 34.3 °F 36.9 °F 100% 30.43 in 10.0 mi NW 3.5 mph - N/A   Clear